Tracking 35274 objects as of 11-Sep-2026
HD Live streaming from Space Station
objects crossing your sky now

SZ-20


SZ-20 is no longer on orbit


NORAD ID: 63632
Int'l Code: 2025-082A
Launch date: April 24, 2025
Source: People's Republic of China (PRC)
Launch site: Jiuquan Satellite Launch Center, China (JSC)
Decay date: 2026-01-19
Your satellite tracking list
Your tracking list is empty




NASA's NSSDC Master Catalog

Two Line Element Set (TLE):
1 63632U 25082A   26031.38642198  .00028253  00000-0  32371-3 0  9999
2 63632  41.4674  74.8264 0008910  46.9753 313.1831 15.61427822255304
Source of the keplerian elements: AFSPC